Lake Tohopekaliga Weather Center

Moon Phase Calendar



Lake Tohopekaliga Water Level
Online Cameras

 


      

Current Conditions in Campbell
4/24/2024 7:15:14 PM

79°F
Feels Like 79
Clear
Humidity
41%
Pressure
30.09"
Wind
5.8 mph (S)
Dew Point
53°F
UV Index
0/10 (Low)
Visibility
6 mi

Hourly Forecast

Date & Time Wed, Apr 24
7:00 PM
Wed, Apr 24
8:00 PM
Wed, Apr 24
9:00 PM
Wed, Apr 24
10:00 PM
Wed, Apr 24
11:00 PM
Thu, Apr 25
12:00 AM
Thu, Apr 25
1:00 AM
Thu, Apr 25
2:00 AM
Thu, Apr 25
3:00 AM
Thu, Apr 25
4:00 AM
Thu, Apr 25
5:00 AM
Thu, Apr 25
6:00 AM
Thu, Apr 25
7:00 AM
Thu, Apr 25
8:00 AM
Thu, Apr 25
9:00 AM
Thu, Apr 25
10:00 AM
Thu, Apr 25
11:00 AM
Thu, Apr 25
12:00 PM
Thu, Apr 25
1:00 PM
Thu, Apr 25
2:00 PM
Thu, Apr 25
3:00 PM
Thu, Apr 25
4:00 PM
Thu, Apr 25
5:00 PM
Thu, Apr 25
6:00 PM
Thu, Apr 25
7:00 PM
Thu, Apr 25
8:00 PM
Thu, Apr 25
9:00 PM
Thu, Apr 25
10:00 PM
Thu, Apr 25
11:00 PM
Fri, Apr 26
12:00 AM
Fri, Apr 26
1:00 AM
Fri, Apr 26
2:00 AM
Fri, Apr 26
3:00 AM
Fri, Apr 26
4:00 AM
Fri, Apr 26
5:00 AM
Fri, Apr 26
6:00 AM
Fri, Apr 26
7:00 AM
Fri, Apr 26
8:00 AM
Fri, Apr 26
9:00 AM
Fri, Apr 26
10:00 AM
Fri, Apr 26
11:00 AM
Fri, Apr 26
12:00 PM
Fri, Apr 26
1:00 PM
Fri, Apr 26
2:00 PM
Fri, Apr 26
3:00 PM
Fri, Apr 26
4:00 PM
Fri, Apr 26
5:00 PM
Fri, Apr 26
6:00 PM
Condition
Clear

Clear

Clear

Clear

Clear

Clear

Clear

Clear

Clear

Clear

Clear

Clear

Clear

Clear

Clear

Clear

Clear

Clear

Clear

Clear

Clear

Clear

Clear

Clear

Clear

Clear

Clear

Clear

Clear

Clear

Clear

Clear

Clear

Clear

Clear

Clear

Clear

Clear

Clear

Clear

Clear

Clear

Clear

Clouds

Clouds

Clouds

Clouds

Clouds
Temperature 79°F77°F74°F69°F64°F60°F59°F59°F58°F58°F58°F58°F57°F63°F70°F76°F81°F84°F86°F88°F88°F89°F89°F87°F82°F74°F70°F66°F64°F63°F62°F61°F60°F60°F60°F60°F60°F66°F73°F77°F81°F84°F87°F88°F88°F85°F84°F81°F
Feels Like 79°F77°F73°F68°F63°F59°F59°F58°F58°F57°F57°F57°F57°F63°F70°F76°F81°F83°F84°F85°F86°F86°F86°F84°F81°F73°F70°F66°F64°F63°F62°F61°F60°F60°F60°F60°F60°F65°F72°F77°F81°F83°F85°F86°F86°F84°F82°F81°F
Cloudiness 0%0%0%0%0%0%0%0%0%0%0%0%0%0%0%0%0%0%0%0%0%0%0%3%4%6%0%0%0%0%0%0%0%0%0%0%0%0%0%0%2%2%7%13%84%83%85%89%
Visibility 6 mi6 mi6 mi6 mi6 mi6 mi6 mi6 mi6 mi6 mi6 mi6 mi6 mi6 mi6 mi6 mi6 mi6 mi6 mi6 mi6 mi6 mi6 mi6 mi6 mi6 mi6 mi6 mi6 mi6 mi6 mi6 mi6 mi6 mi6 mi6 mi6 mi6 mi6 mi6 mi6 mi6 mi6 mi6 mi6 mi6 mi6 mi6 mi
Precipitation 0%0%0%0%0%0%0%0%0%0%0%0%0%0%0%0%0%0%0%0%0%0%0%0%0%0%0%0%0%0%0%0%0%0%0%0%0%0%0%0%0%0%0%0%0%0%0%0%
Humidity 41%43%47%57%65%75%78%81%83%84%86%86%88%74%61%51%43%36%31%28%26%25%24%27%37%50%59%69%76%80%83%86%88%89%90%90%89%75%59%49%42%38%34%31%31%34%36%39%
Dew Point 53°F53°F52°F53°F52°F52°F52°F53°F53°F53°F53°F54°F54°F55°F56°F56°F56°F55°F52°F50°F49°F48°F48°F49°F53°F54°F55°F56°F56°F57°F57°F57°F57°F57°F57°F57°F57°F57°F57°F57°F56°F56°F55°F54°F54°F54°F54°F54°F
Pressure 30.09"30.09"30.09"30.12"30.15"30.15"30.15"30.15"30.12"30.12"30.12"30.12"30.15"30.15"30.15"30.18"30.18"30.15"30.12"30.09"30.06"30.03"30"30"30.03"30.06"30.09"30.12"30.12"30.12"30.12"30.12"30.12"30.09"30.09"30.12"30.15"30.15"30.15"30.15"30.15"30.15"30.12"30.09"30.09"30.06"30.09"30.09"
Wind Speed 10.4 mph14.1 mph10.3 mph3.2 mph2.6 mph5 mph6 mph6.1 mph5.3 mph4 mph3.2 mph4.2 mph3.1 mph3.5 mph4 mph1 mph2.1 mph2.9 mph3.7 mph4.3 mph4.5 mph4.9 mph5.7 mph6.3 mph12.5 mph13 mph10 mph7.1 mph6.7 mph6.7 mph6.9 mph5.5 mph5.3 mph6.1 mph5.6 mph5.1 mph5.1 mph5.8 mph8.8 mph10.4 mph9.1 mph9.4 mph11.4 mph14 mph15.5 mph16.2 mph15.4 mph16.5 mph
Wind
Direction
84°
E
99°
E
95°
E
101°
E
110°
ESE
135°
SE
152°
SSE
160°
SSE
154°
SSE
148°
SSE
138°
SE
146°
SE
148°
SSE
149°
SSE
152°
SSE
101°
E
99°
E
71°
ENE
67°
ENE
41°
NE
23°
NNE
13°
NNE

N
42°
NE
79°
E
100°
E
102°
ESE
120°
ESE
129°
SE
139°
SE
153°
SSE
145°
SE
110°
ESE
127°
SE
127°
SE
112°
ESE
113°
ESE
117°
ESE
119°
ESE
113°
ESE
101°
E
91°
E
86°
E
91°
E
91°
E
86°
E
87°
E
89°
E

Daily Forecast

Date High Low Precip. Humidity
Today
Apr 24

Clear
84 °F
55 °F
0%
32%
Thursday
Apr 25

Clear
89 °F
57 °F
0%
31%
Friday
Apr 26

Clear
88 °F
60 °F
0%
34%
Saturday
Apr 27

Clouds
83 °F
62 °F
0%
48%
Sunday
Apr 28

Rain
80 °F
62 °F
35%
54%
Monday
Apr 29

Clear
88 °F
61 °F
0%
30%
Tuesday
Apr 30

Clear
90 °F
62 °F
0%
28%
Wednesday
May 1

Clouds
90 °F
62 °F
0%
29%
Thursday
May 2

Clear
92 °F
62 °F
0%
24%
Friday
May 3

Clear
93 °F
61 °F
0%
19%
Saturday
May 4

Clear
94 °F
61 °F
0%
19%
Sunday
May 5

Rain
96 °F
62 °F
20%
23%
Monday
May 6

Rain
93 °F
64 °F
100%
29%
Tuesday
May 7

Rain
81 °F
67 °F
95%
61%
Wednesday
May 8

Clouds
80 °F
68 °F
0%
52%
Thursday
May 9

Rain
84 °F
70 °F
20%
48%

Temperature 8-14 Day Outlook



Precipitation 8-14 Day Outlook




Quick Links
Lake Tohopekaliga News
Lake Tohopekaliga Photos
Lake Tohopekaliga Videos




About Us
Contact Us
Site Map
Search Site
Advertise With Us
   
Tohopekaliga.USLakes.info
THE LAKE TOHOPEKALIGA WEBSITE

Copyright 2024, Lakes Online
Privacy    |    Legal